Location: Upper Hardres
(51.2000°N, 1.0833°E)
Time: 15:27:03
(UTC+00:00)

Daily predictions for brighter satellites

Satellite Brightness Start Highest point End
(mag) Time Altitude Azimuth Time Altitude Azimuth Time Altitude Azimuth
NOAA 12 4.3 16:17:38 10° SE 16:22:48 53° ENE 16:27:58 10° N
ATLAS CENTAUR R/B 3.9 16:13:37 10° SSW 16:23:55 44° SE 16:28:23 10° ENE
Cosmos 1898 Rocket 3.5 16:18:48 10° NNW 16:24:05 73° ENE 16:29:17 10° SSE
Cosmos 2369 3.8 16:19:03 10° NNW 16:24:44 56° NE 16:30:21 10° SE
NOSS 2-1 (E) 4.1 16:22:31 10° WSW 16:25:31 34° NNW 16:28:51 10° NE
Meteor PRIRODA 3.8 16:23:05 10° SSE 16:26:36 49° ENE 16:30:07 10° N
USA 305 3.1 16:23:36 10° W 16:27:48 58° N 16:32:01 10° ENE
Cosmos 1633 Rocket 4.5 16:24:56 10° NNE 16:27:53 17° ENE 16:30:49 10° ESE
Cosmos 1933 4.3 16:24:55 10° SSE 16:28:25 29° E 16:31:54 10° NNE
NOSS 2-2 (C) 4.2 16:24:41 10° NW 16:29:29 68° NE 16:36:11 10° SE
Cosmos 1818 4.2 16:25:17 10° NW 16:30:24 37° NNE 16:35:28 10° E
Cosmos 2034 Rocket 4.1 16:24:59 10° S 16:31:01 61° E 16:37:06 10° NNE
FengYun 1-2 T 4.4 16:25:58 10° SE 16:31:22 54° ENE 16:36:45 10° N
SL-16 R/B 3.3 16:27:14 10° NNW 16:31:41 23° NE 16:36:07 10° E
CZ-4B R/B 2.8 16:27:56 10° SSE 16:31:48 56° ENE 16:35:31 10° N
Cosmos 1408 Rocket 3.9 16:30:09 10° NNW 16:34:30 72° W 16:38:53 10° S
ADEOS 3.9 16:30:41 10° S 16:35:54 73° WSW 16:41:10 10° NNW
Cosmos 2082 Rocket 3.2 16:33:15 10° SSE 16:37:55 27° ESE 16:42:36 10° NE
USA 267 3.9 16:32:40 10° ENE 16:38:52 43° SE 16:45:02 10° SSW
SMAP 3.3 16:37:53 10° SE 16:42:21 49° ENE 16:46:52 10° N
Cosmos 1743 Rocket 3.5 16:40:19 10° N 16:44:41 82° E 16:49:00 10° SSE
Cosmos 2333 Rocket 4.0 16:43:11 10° N 16:46:10 14° NNE 16:49:04 10° NE
Meteor 1-25 Rocket 4.2 16:40:39 10° N 16:46:14 75° ENE 16:51:51 10° SSE
Cosmos 2278 3.9 16:42:24 10° NNW 16:47:58 50° NE 16:53:29 10° SE
Cosmos 1763 Rocket 3.4 16:43:22 10° SSW 16:48:25 73° ESE 16:53:34 10° NNE
Cosmos 2026 Rocket 4.0 16:42:59 10° N 16:49:02 57° ENE 16:55:00 10° SSE
ARGOS 4.1 16:44:56 10° ESE 16:49:16 25° ENE 16:53:35 10° N
Cosmos 1602 3.7 16:45:50 10° N 16:49:40 60° ENE 16:53:29 10° SSE
Cosmos 1634 Rocket 4.4 16:44:01 10° SSE 16:49:55 43° E 16:55:50 10° NNE
SL-16 R/B 4.4 16:50:39 10° NNW 16:52:20 11° NNW 16:54:00 10° N
CZ-4B DEB 4.4 16:47:07 10° SE 16:52:26 51° ENE 16:57:44 10° N
Cosmos 44 Rocket 3.7 16:47:54 10° NW 16:52:40 43° NE 16:57:16 10° ESE
SJ 16-02 4.4 16:50:19 10° WNW 16:52:57 16° W 16:55:35 10° SW
Cosmos 2195 Rocket 4.4 16:46:59 10° N 16:53:09 70° ENE 16:59:20 10° SSE
SeaSat 1 3.6 16:50:33 10° NNE 16:55:08 39° NW 16:59:42 10° WSW
Cosmos 1833 Rocket 2.7 16:49:43 10° SSW 16:55:18 69° ESE 17:00:56 10° NNE
Cosmos 1666 Rocket 4.2 16:51:48 10° N 16:55:52 34° ENE 16:59:54 10° SE
Cosmos 841 Rocket 3.9 16:52:03 10° S 16:56:51 41° ESE 17:01:40 10° NE
CZ-2C R/B 3.1 16:52:33 10° S 16:57:23 76° WSW 17:02:10 10° NNW
Okean O Rocket 2.7 16:55:40 10° ESE 16:59:11 23° ENE 17:02:42 10° N
USA 306 3.0 16:55:56 10° WNW 17:00:08 59° N 17:03:36 15° E
Cosmos 1937 Rocket 3.7 16:55:31 10° NNW 17:00:53 81° WSW 17:06:12 10° SSE
Cosmos 1809 Rocket 4.4 16:55:03 10° N 17:01:10 75° ENE 17:07:14 10° SSE
H-2A R/B 2.3 16:57:49 10° SE 17:02:38 42° ENE 17:07:20 10° N
Cosmos 2219 Rocket 3.9 16:59:58 10° N 17:02:50 14° NNE 17:04:46 12° NE
ISS -2.5 17:00:12 10° W 17:03:25 41° SSW 17:06:38 10° SE
Cosmos 1939 Rocket 2.8 16:59:40 10° SSE 17:03:46 80° ENE 17:07:51 10° NNW
COSMOS 2406 3.3 16:58:48 10° SSW 17:04:28 64° ESE 17:10:09 10° NE
ATLAS 2AS CENTAUR R/B 3.9 16:58:13 10° WNW 17:05:00 32° N 17:10:36 13° NE
Cosmos 1606 4.4 17:02:09 10° SW 17:05:35 32° WNW 17:09:03 10° N
Cosmos 372 Rocket 3.9 17:00:26 10° NNW 17:05:42 77° ENE 17:10:58 10° SSE
Cosmos 1125 Rocket 4.3 17:02:18 10° N 17:06:55 30° NE 17:11:31 10° ESE
CZ-2C R/B 3.6 17:02:59 10° NE 17:07:01 23° E 17:11:06 10° SE
Cosmos 1500 3.0 17:05:50 10° N 17:09:35 65° ENE 17:13:16 10° SSE
USA 234 3.4 17:07:48 10° SE 17:14:22 81° SSW 17:20:56 10° WNW
Sich 1 3.0 17:12:51 10° N 17:17:11 88° E 17:21:30 10° S
Cosmos 1782 2.8 17:13:24 10° S 17:17:20 61° E 17:21:17 10° NNE
Cosmos 2221 4.1 17:13:44 10° SW 17:17:40 35° WNW 17:21:41 10° N
SL-08 R/B 3.9 17:13:56 10° N 17:18:35 58° WNW 17:23:07 10° SSW
CZ-2D R/B 3.3 17:15:25 10° SSE 17:19:10 56° ENE 17:22:55 10° N
USA 307 3.0 17:15:34 10° WNW 17:19:48 61° N 17:22:25 22° E
CZ-4B R/B 3.3 17:16:29 10° SE 17:21:38 49° ENE 17:26:45 10° N
ATLAS 5 CENTAUR R/B 2.7 17:14:58 10° NW 17:24:20 56° NNE 17:26:26 22° E
Cosmos 1805 Rocket 4.0 17:20:12 10° NNW 17:24:30 63° W 17:28:47 10° S
NOAA 6 4.2 17:19:34 10° S 17:24:43 76° WSW 17:29:52 10° NNW
SL-24 R/B - RUBIN 2 4.5 17:23:04 10° NW 17:27:29 50° SW 17:31:40 10° SSE
PAYLOAD B 4.2 17:22:14 10° SSE 17:27:49 74° ENE 17:33:25 10° NNW
ERBS 3.5 17:27:11 10° WNW 17:30:01 28° N 17:30:53 24° NNE
deb Chang Zheng 4 3.7 17:27:33 10° SE 17:31:41 47° ENE 17:35:51 10° N
Cosmos 2360 Rocket 3.1 17:30:53 10° NNW 17:35:47 28° NE 17:37:21 25° ENE
Cosmos 540 Rocket 3.5 17:31:23 10° SSW 17:36:30 79° WNW 17:41:12 12° NNE
Lacrosse 5 rocket 1.1 17:32:37 10° WNW 17:36:31 90° NE 17:39:14 20° ESE
H-2A R/B 4.5 17:40:45 13° NNE 17:40:45 13° NNE 17:41:21 10° N
Cosmos 1666 2.5 17:34:56 10° N 17:38:41 77° E 17:42:23 10° SSE
ATLAS CENTAUR R/B 3.6 17:35:54 10° NW 17:38:53 17° NNW 17:41:01 13° NNE
USA 308 2.9 17:38:12 10° WNW 17:42:27 67° NNE 17:44:08 35° E
Meteor 2-16 Rocket 4.4 17:41:59 10° N 17:48:09 88° E 17:54:17 10° S
Meteor 1-11 Rocket 3.9 17:45:49 10° N 17:51:15 48° ENE 17:56:46 10° SE
COSMOS 2428 4.2 17:48:13 10° NNW 17:52:06 19° NNE 17:52:06 19° NNE
COSMOS 2455 2.8 17:46:36 10° SW 17:52:39 88° NW 17:56:39 23° NE
PSLV R/B 4.5 17:51:02 10° S 17:54:38 52° W 17:58:20 10° NNW
CZ-4 R/B 3.5 17:59:19 14° N 17:59:19 14° N 17:59:59 10° N
Cosmos 2322 Rocket 2.3 17:51:51 10° NNW 17:57:26 51° NE 18:00:16 28° ESE
Cosmos 1814 Rocket 3.9 17:52:40 10° SSW 17:57:52 79° ESE 18:00:57 25° NNE
Cosmos 921 Rocket 3.4 17:54:20 10° S 17:57:55 39° ESE 17:57:55 39° ESE
YAOGAN 3 4.4 17:54:32 10° SSE 17:58:53 73° ENE 18:03:15 10° N
Cosmos 1570 Rocket 3.9 17:53:47 10° SSW 17:58:59 71° ESE 18:01:47 28° NNE
Cosmos 2298 Rocket 3.9 17:55:29 10° NNW 18:00:50 76° ENE 18:06:10 10° SSE
SL-08 RB Rocket 3.7 17:56:28 10° SSE 18:00:59 56° ENE 18:05:30 10° N
COSMO-SKYMED 1 2.5 17:59:54 38° NE 18:01:22 59° E 18:05:39 10° S
Cosmos 1980 Rocket 3.5 17:56:33 10° NW 18:01:52 42° WSW 18:07:07 10° S
CZ-4C R/B 3.5 17:55:42 10° NW 18:02:44 62° SW 18:10:58 10° SSE
Cosmos 1356 Rocket 3.7 18:00:36 10° N 18:04:07 47° NE 18:04:07 47° NE
Cosmos 1633 Rocket 3.4 18:01:48 10° NNW 18:06:08 65° W 18:10:28 10° S
Cosmos 1812 3.1 18:03:40 10° SSW 18:07:29 63° WNW 18:09:54 21° N
USA 305 2.8 18:03:40 10° WNW 18:07:56 83° NNE 18:08:38 61° E
Helios 1B 4.4 18:07:44 46° NE 18:08:52 67° ESE 18:13:10 10° S
Meteor 2-15 Rocket 4.5 18:04:17 10° SSE 18:10:11 52° E 18:14:07 21° NNE
Feng Yun 1-1 Rocket 4.3 18:06:26 10° SSE 18:12:18 68° ENE 18:18:05 10° NNW
YAOGAN 1 3.5 18:14:03 33° NNE 18:14:03 33° NNE 18:16:41 10° N
CZ-4 R/B 4.4 18:10:00 10° SSE 18:14:08 85° WSW 18:18:18 10° NNW
Cosmos 1818 4.0 18:08:53 10° NW 18:14:19 63° SW 18:19:41 10° SSE
Cosmos 1151 Rocket 3.4 18:10:14 10° SSW 18:14:32 65° WNW 18:17:49 17° N
Cosmos 2279 Rocket 4.1 18:09:04 10° SSW 18:15:16 78° W 18:21:31 10° N
SL-16 R/B 2.1 18:10:56 10° NNW 18:16:40 84° ENE 18:21:04 17° SSE
Cosmos 2266 Rocket 3.9 18:10:26 10° N 18:16:51 79° E 18:23:18 10° SSE
Cosmos 2237 Rocket 4.1 18:15:50 10° N 18:17:59 14° NNE 18:17:59 14° NNE
Cosmos 2082 Rocket 2.6 18:15:59 10° SW 18:21:37 62° NW 18:24:52 26° NNE
USA 267 3.2 18:19:25 38° ENE 18:22:15 82° NNW 18:28:48 10° WSW
Landsat 5 4.1 18:25:10 42° S 18:25:10 42° S 18:27:56 10° S
NOAA 15 4.4 18:20:20 10° SSE 18:25:35 72° ENE 18:30:52 10° NNW
ARGOS 3.5 18:23:45 10° S 18:29:07 66° WSW 18:34:31 10° NNW
GEOS 3 Rocket 3.5 18:30:35 61° ESE 18:31:28 76° NE 18:36:40 10° NW
Cosmos 1933 Rocket 3.8 18:27:06 10° N 18:30:32 54° N 18:30:32 54° N
Cosmos 2333 Rocket 3.1 18:26:53 10° NNW 18:31:05 34° NNE 18:31:05 34° NNE
Meteor 2-15 4.3 18:26:12 10° S 18:32:20 90° W 18:38:28 10° N
Cosmos 44 Rocket 4.4 18:29:35 10° NW 18:34:14 42° WSW 18:38:14 13° S
Okean O Rocket 2.4 18:30:53 10° S 18:35:14 52° W 18:39:37 10° NNW
Cosmos 2208 Rocket 4.1 18:30:20 10° SSW 18:35:45 77° WNW 18:37:42 41° NNE
Cosmos 2150 Rocket 4.4 18:32:09 10° NNW 18:37:16 62° WSW 18:42:25 10° S
Cosmos 1470 Rocket 4.3 18:32:55 10° NNW 18:37:16 53° W 18:41:37 10° S
Cosmos 1328 Rocket 4.3 18:34:08 10° SSW 18:38:30 53° WNW 18:40:29 29° NNW
SL-16 R/B 4.4 18:37:27 10° N 18:38:38 11° N 18:38:38 11° N
ISS -0.5 18:39:08 10° SW 18:39:33 10° SW 18:39:57 10° SW
Cosmos 1833 Rocket 4.3 18:34:52 10° WSW 18:39:44 29° NW 18:43:03 17° N
USA 306 3.2 18:35:55 10° WNW 18:39:36 63° W 18:39:36 63° W
H-2A R/B 3.7 18:37:37 10° SSW 18:42:11 32° W 18:46:40 10° NNW
CZ-2C R/B 3.0 18:44:29 22° N 18:47:43 59° WNW 18:52:47 10° SSW
Cosmos 2219 Rocket 3.4 18:43:13 10° NNW 18:46:30 29° N 18:46:30 29° N
Cosmos 1125 Rocket 4.2 18:44:11 10° NNW 18:49:17 54° WSW 18:54:25 10° S
SKYMED 2 4.4 18:48:31 42° NNW 18:49:25 49° WNW 18:53:36 10° SW
USA 32 4.1 18:45:03 10° S 18:49:25 64° S 18:49:25 64° S
ATLAS CENTAUR R/B 3.0 18:48:39 10° W 18:54:28 45° NW 18:54:28 45° NW
NOSS 3-4 (A) 3.9 18:48:30 10° NW 18:55:00 53° NNE 18:55:00 53° NNE
NOSS 3-4 (C) 3.9 18:48:36 10° NW 18:55:05 52° NNE 18:55:05 52° NNE
Meteor 1-27 Rocket 4.0 18:52:25 10° S 18:56:41 55° S 18:56:41 55° S
ATLAS 2AS CENTAUR R/B 3.5 18:51:01 10° NW 18:57:56 38° NNE 18:58:02 38° NNE
USA 307 4.1 18:55:34 10° WNW 18:58:27 40° W 18:58:27 40° W
Lacrosse 5 rocket 3.7 19:12:14 10° W 19:14:52 20° WSW 19:14:52 20° WSW
ATLAS CENTAUR R/B 4.2 19:16:18 10° NNW 19:17:07 13° NNW 19:17:07 13° NNW
Cosmos 2360 Rocket 2.7 19:14:39 10° NNW 19:19:09 55° NW 19:19:09 55° NW
COSMOS 2428 4.5 19:31:59 10° NNW 19:34:07 23° NNW 19:34:07 23° NNW
COSMOS 2455 4.3 19:34:11 10° W 19:39:24 29° NNW 19:39:49 29° NNW
Cosmos 2322 Rocket 3.6 19:36:14 10° NW 19:41:19 34° WSW 19:42:10 32° SW
USA 267 4.1 20:06:46 43° NW 20:06:46 43° NW 20:11:21 10° W
Cosmos 2082 Rocket 4.4 20:02:58 10° WNW 20:06:45 19° NW 20:06:45 19° NW
Cosmos 2333 Rocket 4.3 20:11:09 10° NW 20:13:07 21° NW 20:13:07 21° NW
ATLAS 2AS CENTAUR R/B 4.5 20:42:28 10° NW 20:45:28 27° NW 20:45:28 27° NW
